User: anonymous   Login
Location: Unspecified
(0.0000°N, 0.0000°E)
Time: 10:38:36
(UTC+00:00)
Language:

FORTE - Orbit

View from above orbital plane
View from above orbital plane
View from above satellite
View from above satellite

Ground track
Ground track

The orbit data is extracted from the following two-line orbital elements,

1 24920U 97047A   18267.55218532 -.00000002 +00000-0 +23178-4 0  9997
2 24920 069.9522 257.7051 0021661 167.2285 192.9390 14.26305571096053
Epoch (UTC): 24 September 2018 13:15:08
Eccentricity: 0.0021661
inclination: 69.9522°
perigee height: 788 km
apogee height: 819 km
right ascension of ascending node: 257.7051°
argument of perigee: 167.2285°
revolutions per day: 14.26305571
mean anomaly at epoch: 192.9390°
orbit number at epoch: 9605

The dashed part of the orbit path shows where the satellite is in the earth's shadow,  

DLR